Year,Month,Day,Hour,Minute,Value (Times are PST for temperature in C)
2016,07,04,00,00,14.20
2016,07,04,00,01,14.20
2016,07,04,00,02,14.20
2016,07,04,00,03,14.20
2016,07,04,00,04,14.10
2016,07,04,00,05,14.10
2016,07,04,00,06,14.10
2016,07,04,00,07,14.00
2016,07,04,00,08,14.00
2016,07,04,00,09,13.90
2016,07,04,00,10,13.90
2016,07,04,00,11,13.90
2016,07,04,00,12,13.90
2016,07,04,00,13,13.80
2016,07,04,00,14,13.80
2016,07,04,00,15,13.80
2016,07,04,00,16,13.80
2016,07,04,00,17,13.80
2016,07,04,00,18,13.70
2016,07,04,00,19,13.70
2016,07,04,00,20,13.70
2016,07,04,00,21,13.70
2016,07,04,00,22,13.70
2016,07,04,00,23,13.60
2016,07,04,00,24,13.60
2016,07,04,00,25,13.60
2016,07,04,00,26,13.60
2016,07,04,00,27,13.60
2016,07,04,00,28,13.60
2016,07,04,00,29,13.60
2016,07,04,00,30,13.60
2016,07,04,00,31,13.50
2016,07,04,00,32,13.50
2016,07,04,00,33,13.50
2016,07,04,00,34,13.50
2016,07,04,00,35,13.40
2016,07,04,00,36,13.40
2016,07,04,00,37,13.40
2016,07,04,00,38,13.40
2016,07,04,00,39,13.40
2016,07,04,00,40,13.40
2016,07,04,00,41,13.40
2016,07,04,00,42,13.50
2016,07,04,00,43,13.50
2016,07,04,00,44,13.60
2016,07,04,00,45,13.70
2016,07,04,00,46,13.70
2016,07,04,00,47,13.80
2016,07,04,00,48,13.80
2016,07,04,00,49,13.80
2016,07,04,00,50,13.90
2016,07,04,00,51,13.90
2016,07,04,00,52,14.00
2016,07,04,00,53,14.10
2016,07,04,00,54,14.10
2016,07,04,00,55,14.10
2016,07,04,00,56,14.10
2016,07,04,00,57,14.20
2016,07,04,00,58,14.20
2016,07,04,00,59,14.20
2016,07,04,01,00,14.20
2016,07,04,01,01,14.20
2016,07,04,01,02,14.20
2016,07,04,01,03,14.20
2016,07,04,01,04,14.20
2016,07,04,01,05,14.20
2016,07,04,01,06,14.20
2016,07,04,01,07,14.30
2016,07,04,01,08,14.30
2016,07,04,01,09,14.30
2016,07,04,01,10,14.30
2016,07,04,01,11,14.30
2016,07,04,01,12,14.20
2016,07,04,01,13,14.20
2016,07,04,01,14,14.20
2016,07,04,01,15,14.20
2016,07,04,01,16,14.20
2016,07,04,01,17,14.20
2016,07,04,01,18,14.20
2016,07,04,01,19,14.20
2016,07,04,01,20,14.20
2016,07,04,01,21,14.10
2016,07,04,01,22,14.10
2016,07,04,01,23,14.10
2016,07,04,01,24,14.10
2016,07,04,01,25,14.10
2016,07,04,01,26,14.10
2016,07,04,01,27,14.10
2016,07,04,01,28,14.10
2016,07,04,01,29,14.10
2016,07,04,01,30,14.10
2016,07,04,01,31,14.10
2016,07,04,01,32,14.00
2016,07,04,01,33,14.10
2016,07,04,01,34,14.10
2016,07,04,01,35,14.10
2016,07,04,01,36,14.10
2016,07,04,01,37,14.10
2016,07,04,01,38,14.10
2016,07,04,01,39,14.10
2016,07,04,01,40,14.10
2016,07,04,01,41,14.10
2016,07,04,01,42,14.10
2016,07,04,01,43,14.10
2016,07,04,01,44,14.10
2016,07,04,01,45,14.10
2016,07,04,01,46,14.10
2016,07,04,01,47,14.10
2016,07,04,01,48,14.10
2016,07,04,01,49,14.10
2016,07,04,01,50,14.10
2016,07,04,01,51,14.10
2016,07,04,01,52,14.10
2016,07,04,01,53,14.10
2016,07,04,01,54,14.10
2016,07,04,01,55,14.10
2016,07,04,01,56,14.00
2016,07,04,01,57,14.00
2016,07,04,01,58,14.00
2016,07,04,01,59,14.00
2016,07,04,02,00,13.90
2016,07,04,02,01,13.90
2016,07,04,02,02,13.90
2016,07,04,02,03,13.90
2016,07,04,02,04,13.90
2016,07,04,02,05,13.90
2016,07,04,02,06,13.90
2016,07,04,02,07,13.90
2016,07,04,02,08,13.80
2016,07,04,02,09,13.80
2016,07,04,02,10,13.80
2016,07,04,02,11,13.80
2016,07,04,02,12,13.80
2016,07,04,02,13,13.80
2016,07,04,02,14,13.80
2016,07,04,02,15,13.80
2016,07,04,02,16,13.80
2016,07,04,02,17,13.80
2016,07,04,02,18,13.80
2016,07,04,02,19,13.80
2016,07,04,02,20,13.80
2016,07,04,02,21,13.80
2016,07,04,02,22,13.80
2016,07,04,02,23,13.80
2016,07,04,02,24,13.70
2016,07,04,02,25,13.70
2016,07,04,02,26,13.70
2016,07,04,02,27,13.70
2016,07,04,02,28,13.70
2016,07,04,02,29,13.70
2016,07,04,02,30,13.70
2016,07,04,02,31,13.70
2016,07,04,02,32,13.70
2016,07,04,02,33,13.70
2016,07,04,02,34,13.70
2016,07,04,02,35,13.70
2016,07,04,02,36,13.70
2016,07,04,02,37,13.60
2016,07,04,02,38,13.60
2016,07,04,02,39,13.60
2016,07,04,02,40,13.60
2016,07,04,02,41,13.60
2016,07,04,02,42,13.60
2016,07,04,02,43,13.50
2016,07,04,02,44,13.50
2016,07,04,02,45,13.50
2016,07,04,02,46,13.50
2016,07,04,02,47,13.50
2016,07,04,02,48,13.40
2016,07,04,02,49,13.40
2016,07,04,02,50,13.40
2016,07,04,02,51,13.40
2016,07,04,02,52,13.40
2016,07,04,02,53,13.30
2016,07,04,02,54,13.30
2016,07,04,02,55,13.30
2016,07,04,02,56,13.30
2016,07,04,02,57,13.30
2016,07,04,02,58,13.30
2016,07,04,02,59,13.30
2016,07,04,03,00,13.30
2016,07,04,03,01,13.20
2016,07,04,03,02,13.20
2016,07,04,03,03,13.20
2016,07,04,03,04,13.20
2016,07,04,03,05,13.20
2016,07,04,03,06,13.10
2016,07,04,03,07,13.10
2016,07,04,03,08,13.10
2016,07,04,03,09,13.10
2016,07,04,03,10,13.10
2016,07,04,03,11,13.10
2016,07,04,03,12,13.00
2016,07,04,03,13,13.00
2016,07,04,03,14,13.00
2016,07,04,03,15,13.00
2016,07,04,03,16,13.00
2016,07,04,03,17,12.90
2016,07,04,03,18,12.90
2016,07,04,03,19,12.90
2016,07,04,03,20,12.90
2016,07,04,03,21,12.90
2016,07,04,03,22,12.90
2016,07,04,03,23,12.90
2016,07,04,03,24,12.90
2016,07,04,03,25,12.90
2016,07,04,03,26,12.90
2016,07,04,03,27,12.80
2016,07,04,03,28,12.80
2016,07,04,03,29,12.80
2016,07,04,03,30,12.80
2016,07,04,03,31,12.80
2016,07,04,03,32,12.80
2016,07,04,03,33,12.80
2016,07,04,03,34,12.80
2016,07,04,03,35,12.80
2016,07,04,03,36,12.70
2016,07,04,03,37,12.70
2016,07,04,03,38,12.70
2016,07,04,03,39,12.70
2016,07,04,03,40,12.70
2016,07,04,03,41,12.70
2016,07,04,03,42,12.60
2016,07,04,03,43,12.60
2016,07,04,03,44,12.60
2016,07,04,03,45,12.60
2016,07,04,03,46,12.60
2016,07,04,03,47,12.60
2016,07,04,03,48,12.50
2016,07,04,03,49,12.50
2016,07,04,03,50,12.50
2016,07,04,03,51,12.40
2016,07,04,03,52,12.40
2016,07,04,03,53,12.40
2016,07,04,03,54,12.40
2016,07,04,03,55,12.30
2016,07,04,03,56,12.30
2016,07,04,03,57,12.30
2016,07,04,03,58,12.30
2016,07,04,03,59,12.30
2016,07,04,04,00,12.30
2016,07,04,04,01,12.30
2016,07,04,04,02,12.30
2016,07,04,04,03,12.20
2016,07,04,04,04,12.20
2016,07,04,04,05,12.20
2016,07,04,04,06,12.20
2016,07,04,04,07,12.20
2016,07,04,04,08,12.20
2016,07,04,04,09,12.20
2016,07,04,04,10,12.30
2016,07,04,04,11,12.30
2016,07,04,04,12,12.30
2016,07,04,04,13,12.30
2016,07,04,04,14,12.30
2016,07,04,04,15,12.30
2016,07,04,04,16,12.40
2016,07,04,04,17,12.40
2016,07,04,04,18,12.40
2016,07,04,04,19,12.40
2016,07,04,04,20,12.40
2016,07,04,04,21,12.50
2016,07,04,04,22,12.50
2016,07,04,04,23,12.50
2016,07,04,04,24,12.60
2016,07,04,04,25,12.60
2016,07,04,04,26,12.60
2016,07,04,04,27,12.60
2016,07,04,04,28,12.60
2016,07,04,04,29,12.60
2016,07,04,04,30,12.70
2016,07,04,04,31,12.70
2016,07,04,04,32,12.70
2016,07,04,04,33,12.70
2016,07,04,04,34,12.70
2016,07,04,04,35,12.70
2016,07,04,04,36,12.70
2016,07,04,04,37,12.80
2016,07,04,04,38,12.80
2016,07,04,04,39,12.80
2016,07,04,04,40,12.80
2016,07,04,04,41,12.80
2016,07,04,04,42,12.80
2016,07,04,04,43,12.80
2016,07,04,04,44,12.80
2016,07,04,04,45,12.80
2016,07,04,04,46,12.80
2016,07,04,04,47,12.90
2016,07,04,04,48,12.90
2016,07,04,04,49,12.90
2016,07,04,04,50,12.90
2016,07,04,04,51,12.90
2016,07,04,04,52,12.90
2016,07,04,04,53,12.90
2016,07,04,04,54,12.90
2016,07,04,04,55,12.90
2016,07,04,04,56,12.90
2016,07,04,04,57,12.90
2016,07,04,04,58,12.90
2016,07,04,04,59,12.90
2016,07,04,05,00,12.90
2016,07,04,05,01,12.90
2016,07,04,05,02,12.90
2016,07,04,05,03,12.90
2016,07,04,05,04,12.90
2016,07,04,05,05,12.90
2016,07,04,05,06,12.80
2016,07,04,05,07,12.80
2016,07,04,05,08,12.80
2016,07,04,05,09,12.80
2016,07,04,05,10,12.80
2016,07,04,05,11,12.80
2016,07,04,05,12,12.80
2016,07,04,05,13,12.70
2016,07,04,05,14,12.70
2016,07,04,05,15,12.70
2016,07,04,05,16,12.70
2016,07,04,05,17,12.70
2016,07,04,05,18,12.60
2016,07,04,05,19,12.60
2016,07,04,05,20,12.60
2016,07,04,05,21,12.60
2016,07,04,05,22,12.60
2016,07,04,05,23,12.50
2016,07,04,05,24,12.50
2016,07,04,05,25,12.40
2016,07,04,05,26,12.40
2016,07,04,05,27,12.40
2016,07,04,05,28,12.40
2016,07,04,05,29,12.40
2016,07,04,05,30,12.30
2016,07,04,05,31,12.30
2016,07,04,05,32,12.30
2016,07,04,05,33,12.30
2016,07,04,05,34,12.30
2016,07,04,05,35,12.30
2016,07,04,05,36,12.30
2016,07,04,05,37,12.30
2016,07,04,05,38,12.40
2016,07,04,05,39,12.40
2016,07,04,05,40,12.40
2016,07,04,05,41,12.40
2016,07,04,05,42,12.40
2016,07,04,05,43,12.40
2016,07,04,05,44,12.50
2016,07,04,05,45,12.50
2016,07,04,05,46,12.50
2016,07,04,05,47,12.50
2016,07,04,05,48,12.60
2016,07,04,05,49,12.60
2016,07,04,05,50,12.60
2016,07,04,05,51,12.60
2016,07,04,05,52,12.60
2016,07,04,05,53,12.70
2016,07,04,05,54,12.70
2016,07,04,05,55,12.70
2016,07,04,05,56,12.70
2016,07,04,05,57,12.70
2016,07,04,05,58,12.70
2016,07,04,05,59,12.80
2016,07,04,06,00,12.80
2016,07,04,06,01,12.80
2016,07,04,06,02,12.80
2016,07,04,06,03,12.80
2016,07,04,06,04,12.80
2016,07,04,06,05,12.80
2016,07,04,06,06,12.80
2016,07,04,06,07,12.80
2016,07,04,06,08,12.80
2016,07,04,06,09,12.80
2016,07,04,06,10,12.80
2016,07,04,06,11,12.80
2016,07,04,06,12,12.80
2016,07,04,06,13,12.80
2016,07,04,06,14,12.80
2016,07,04,06,15,12.80
2016,07,04,06,16,12.80
2016,07,04,06,17,12.80
2016,07,04,06,18,12.80
2016,07,04,06,19,12.80
2016,07,04,06,20,12.70
2016,07,04,06,21,12.70
2016,07,04,06,22,12.70
2016,07,04,06,23,12.70
2016,07,04,06,24,12.70
2016,07,04,06,25,12.80
2016,07,04,06,26,12.80
2016,07,04,06,27,12.80
2016,07,04,06,28,12.80
2016,07,04,06,29,12.80
2016,07,04,06,30,12.80
2016,07,04,06,31,12.80
2016,07,04,06,32,12.80
2016,07,04,06,33,12.90
2016,07,04,06,34,12.90
2016,07,04,06,35,12.90
2016,07,04,06,36,12.90
2016,07,04,06,37,13.00
2016,07,04,06,38,13.00
2016,07,04,06,39,13.10
2016,07,04,06,40,13.10
2016,07,04,06,41,13.10
2016,07,04,06,42,13.20
2016,07,04,06,43,13.20
2016,07,04,06,44,13.20
2016,07,04,06,45,13.30
2016,07,04,06,46,13.30
2016,07,04,06,47,13.30
2016,07,04,06,48,13.30
2016,07,04,06,49,13.40
2016,07,04,06,50,13.40
2016,07,04,06,51,13.40
2016,07,04,06,52,13.40
2016,07,04,06,53,13.40
2016,07,04,06,54,13.40
2016,07,04,06,55,13.40
2016,07,04,06,56,13.40
2016,07,04,06,57,13.40
2016,07,04,06,58,13.40
2016,07,04,06,59,13.40
2016,07,04,07,00,13.50
2016,07,04,07,01,13.50
2016,07,04,07,02,13.50
2016,07,04,07,03,13.50
2016,07,04,07,04,13.50
2016,07,04,07,05,13.50
2016,07,04,07,06,13.40
2016,07,04,07,07,13.40
2016,07,04,07,08,13.40
2016,07,04,07,09,13.40
2016,07,04,07,10,13.40
2016,07,04,07,11,13.40
2016,07,04,07,12,13.40
2016,07,04,07,13,13.40
2016,07,04,07,14,13.40
2016,07,04,07,15,13.40
2016,07,04,07,16,13.40
2016,07,04,07,17,13.40
2016,07,04,07,18,13.40
2016,07,04,07,19,13.50
2016,07,04,07,20,13.50
2016,07,04,07,21,13.50
2016,07,04,07,22,13.50
2016,07,04,07,23,13.50
2016,07,04,07,24,13.50
2016,07,04,07,25,13.50
2016,07,04,07,26,13.50
2016,07,04,07,27,13.50
2016,07,04,07,28,13.50
2016,07,04,07,29,13.60
2016,07,04,07,30,13.60
2016,07,04,07,31,13.60
2016,07,04,07,32,13.60
2016,07,04,07,33,13.60
2016,07,04,07,34,13.60
2016,07,04,07,35,13.60
2016,07,04,07,36,13.60
2016,07,04,07,37,13.60
2016,07,04,07,38,13.60
2016,07,04,07,39,13.60
2016,07,04,07,40,13.60
2016,07,04,07,41,13.60
2016,07,04,07,42,13.60
2016,07,04,07,43,13.60
2016,07,04,07,44,13.60
2016,07,04,07,45,13.60
2016,07,04,07,46,13.60
2016,07,04,07,47,13.60
2016,07,04,07,48,13.60
2016,07,04,07,49,13.70
2016,07,04,07,50,13.70
2016,07,04,07,51,13.70
2016,07,04,07,52,13.70
2016,07,04,07,53,13.80
2016,07,04,07,54,13.80
2016,07,04,07,55,13.90
2016,07,04,07,56,14.00
2016,07,04,07,57,14.00
2016,07,04,07,58,14.10
2016,07,04,07,59,14.20
2016,07,04,08,00,14.20
2016,07,04,08,01,14.20
2016,07,04,08,02,14.30
2016,07,04,08,03,14.30
2016,07,04,08,04,14.40
2016,07,04,08,05,14.40
2016,07,04,08,06,14.50
2016,07,04,08,07,14.50
2016,07,04,08,08,14.60
2016,07,04,08,09,14.60
2016,07,04,08,10,14.60
2016,07,04,08,11,14.60
2016,07,04,08,12,14.70
2016,07,04,08,13,14.70
2016,07,04,08,14,14.70
2016,07,04,08,15,14.80
2016,07,04,08,16,14.80
2016,07,04,08,17,14.80
2016,07,04,08,18,14.90
2016,07,04,08,19,14.90
2016,07,04,08,20,15.00
2016,07,04,08,21,15.00
2016,07,04,08,22,15.00
2016,07,04,08,23,15.00
2016,07,04,08,24,15.00
2016,07,04,08,25,15.00
2016,07,04,08,26,15.00
2016,07,04,08,27,15.00
2016,07,04,08,28,15.00
2016,07,04,08,29,15.10
2016,07,04,08,30,15.10
2016,07,04,08,31,15.20
2016,07,04,08,32,15.20
2016,07,04,08,33,15.20
2016,07,04,08,34,15.30
2016,07,04,08,35,15.30
2016,07,04,08,36,15.30
2016,07,04,08,37,15.30
2016,07,04,08,38,15.30
2016,07,04,08,39,15.30
2016,07,04,08,40,15.30
2016,07,04,08,41,15.30
2016,07,04,08,42,15.30
2016,07,04,08,43,15.30
2016,07,04,08,44,15.30
2016,07,04,08,45,15.30
2016,07,04,08,46,15.30
2016,07,04,08,47,15.30
2016,07,04,08,48,15.30
2016,07,04,08,49,15.20
2016,07,04,08,50,15.20
2016,07,04,08,51,15.20
2016,07,04,08,52,15.20
2016,07,04,08,53,15.10
2016,07,04,08,54,15.10
2016,07,04,08,55,15.10
2016,07,04,08,56,15.10
2016,07,04,08,57,15.10
2016,07,04,08,58,15.10
2016,07,04,08,59,15.10
2016,07,04,09,00,15.10
2016,07,04,09,01,15.10
2016,07,04,09,02,15.20
2016,07,04,09,03,15.20
2016,07,04,09,04,15.20
2016,07,04,09,05,15.20
2016,07,04,09,06,15.20
2016,07,04,09,07,15.30
2016,07,04,09,08,15.30
2016,07,04,09,09,15.30
2016,07,04,09,10,15.30
2016,07,04,09,11,15.40
2016,07,04,09,12,15.40
2016,07,04,09,13,15.40
2016,07,04,09,14,15.40
2016,07,04,09,15,15.50
2016,07,04,09,16,15.50
2016,07,04,09,17,15.50
2016,07,04,09,18,15.50
2016,07,04,09,19,15.60
2016,07,04,09,20,15.60
2016,07,04,09,21,15.60
2016,07,04,09,22,15.60
2016,07,04,09,23,15.60
2016,07,04,09,24,15.70
2016,07,04,09,25,15.70
2016,07,04,09,26,15.70
2016,07,04,09,27,15.70
2016,07,04,09,28,15.80
2016,07,04,09,29,15.80
2016,07,04,09,30,15.80
2016,07,04,09,31,15.80
2016,07,04,09,32,15.90
2016,07,04,09,33,15.90
2016,07,04,09,34,15.90
2016,07,04,09,35,16.00
2016,07,04,09,36,16.00
2016,07,04,09,37,16.00
2016,07,04,09,38,16.10
2016,07,04,09,39,16.10
2016,07,04,09,40,16.10
2016,07,04,09,41,16.10
2016,07,04,09,42,16.20
2016,07,04,09,43,16.20
2016,07,04,09,44,16.20
2016,07,04,09,45,16.20
2016,07,04,09,46,16.20
2016,07,04,09,47,16.20
2016,07,04,09,48,16.20
2016,07,04,09,49,16.20
2016,07,04,09,50,16.30
2016,07,04,09,51,16.30
2016,07,04,09,52,16.30
2016,07,04,09,53,16.40
2016,07,04,09,54,16.40
2016,07,04,09,55,16.40
2016,07,04,09,56,16.40
2016,07,04,09,57,16.50
2016,07,04,09,58,16.50
2016,07,04,09,59,16.50
2016,07,04,10,00,16.50
2016,07,04,10,01,16.60
2016,07,04,10,02,16.60
2016,07,04,10,03,16.60
2016,07,04,10,04,16.60
2016,07,04,10,05,16.60
2016,07,04,10,06,16.60
2016,07,04,10,07,16.60
2016,07,04,10,08,16.60
2016,07,04,10,09,16.60
2016,07,04,10,10,16.60
2016,07,04,10,11,16.60
2016,07,04,10,12,16.60
2016,07,04,10,13,16.60
2016,07,04,10,14,16.60
2016,07,04,10,15,16.60
2016,07,04,10,16,16.60
2016,07,04,10,17,16.60
2016,07,04,10,18,16.60
2016,07,04,10,19,16.60
2016,07,04,10,20,16.70
2016,07,04,10,21,16.70
2016,07,04,10,22,16.70
2016,07,04,10,23,16.70
2016,07,04,10,24,16.70
2016,07,04,10,25,16.70
2016,07,04,10,26,16.70
2016,07,04,10,27,16.70
2016,07,04,10,28,16.70
2016,07,04,10,29,16.70
2016,07,04,10,30,16.70
2016,07,04,10,31,16.80
2016,07,04,10,32,16.80
2016,07,04,10,33,16.80
2016,07,04,10,34,16.80
2016,07,04,10,35,16.80
2016,07,04,10,36,16.90
2016,07,04,10,37,16.90
2016,07,04,10,38,16.90
2016,07,04,10,39,17.00
2016,07,04,10,40,17.00
2016,07,04,10,41,17.10
2016,07,04,10,42,17.20
2016,07,04,10,43,17.20
2016,07,04,10,44,17.20
2016,07,04,10,45,17.20
2016,07,04,10,46,17.20
2016,07,04,10,47,17.20
2016,07,04,10,48,17.20
2016,07,04,10,49,17.20
2016,07,04,10,50,17.30
2016,07,04,10,51,17.30
2016,07,04,10,52,17.30
2016,07,04,10,53,17.30
2016,07,04,10,54,17.30
2016,07,04,10,55,17.40
2016,07,04,10,56,17.40
2016,07,04,10,57,17.40
2016,07,04,10,58,17.40
2016,07,04,10,59,17.40
2016,07,04,11,00,17.50
2016,07,04,11,01,17.50
2016,07,04,11,02,17.50
2016,07,04,11,03,17.60
2016,07,04,11,04,17.60
2016,07,04,11,05,17.60
2016,07,04,11,06,17.60
2016,07,04,11,07,17.60
2016,07,04,11,08,17.60
2016,07,04,11,09,17.60
2016,07,04,11,10,17.60
2016,07,04,11,11,17.60
2016,07,04,11,12,17.60
2016,07,04,11,13,17.60
2016,07,04,11,14,17.60
2016,07,04,11,15,17.60
2016,07,04,11,16,17.50
2016,07,04,11,17,17.50
2016,07,04,11,18,17.50
2016,07,04,11,19,17.50
2016,07,04,11,20,17.40
2016,07,04,11,21,17.40
2016,07,04,11,22,17.40
2016,07,04,11,23,17.40
2016,07,04,11,24,17.40
2016,07,04,11,25,17.40
2016,07,04,11,26,17.40
2016,07,04,11,27,17.40
2016,07,04,11,28,17.40
2016,07,04,11,29,17.40
2016,07,04,11,30,17.40
2016,07,04,11,31,17.40
2016,07,04,11,32,17.40
2016,07,04,11,33,17.40
2016,07,04,11,34,17.40
2016,07,04,11,35,17.40
2016,07,04,11,36,17.40
2016,07,04,11,37,17.40
2016,07,04,11,38,17.40
2016,07,04,11,39,17.40
2016,07,04,11,40,17.40
2016,07,04,11,41,17.40
2016,07,04,11,42,17.40
2016,07,04,11,43,17.40
2016,07,04,11,44,17.40
2016,07,04,11,45,17.40
2016,07,04,11,46,17.40
2016,07,04,11,47,17.40
2016,07,04,11,48,17.40
2016,07,04,11,49,17.40
2016,07,04,11,50,17.40
2016,07,04,11,51,17.40
2016,07,04,11,52,17.40
2016,07,04,11,53,17.40
2016,07,04,11,54,17.40
2016,07,04,11,55,17.40
2016,07,04,11,56,17.40
2016,07,04,11,57,17.40
2016,07,04,11,58,17.40
2016,07,04,11,59,17.40
2016,07,04,12,00,17.40
2016,07,04,12,01,17.40
2016,07,04,12,02,17.40
2016,07,04,12,03,17.40
2016,07,04,12,04,17.40
2016,07,04,12,05,17.40
2016,07,04,12,06,17.40
2016,07,04,12,07,17.40
2016,07,04,12,08,17.40
2016,07,04,12,09,17.40
2016,07,04,12,10,17.40
2016,07,04,12,11,17.30
2016,07,04,12,12,17.30
2016,07,04,12,13,17.30
2016,07,04,12,14,17.40
2016,07,04,12,15,17.40
2016,07,04,12,16,17.40
2016,07,04,12,17,17.50
2016,07,04,12,18,17.50
2016,07,04,12,19,17.60
2016,07,04,12,20,17.60
2016,07,04,12,21,17.70
2016,07,04,12,22,17.70
2016,07,04,12,23,17.70
2016,07,04,12,24,17.80
2016,07,04,12,25,17.80
2016,07,04,12,26,17.80
2016,07,04,12,27,17.90
2016,07,04,12,28,17.90
2016,07,04,12,29,17.90
2016,07,04,12,30,17.90
2016,07,04,12,31,18.00
2016,07,04,12,32,18.10
2016,07,04,12,33,18.10
2016,07,04,12,34,18.20
2016,07,04,12,35,18.30
2016,07,04,12,36,18.30
2016,07,04,12,37,18.40
2016,07,04,12,38,18.40
2016,07,04,12,39,18.40
2016,07,04,12,40,18.40
2016,07,04,12,41,18.40
2016,07,04,12,42,18.40
2016,07,04,12,43,18.30
2016,07,04,12,44,18.30
2016,07,04,12,45,18.30
2016,07,04,12,46,18.30
2016,07,04,12,47,18.30
2016,07,04,12,48,18.30
2016,07,04,12,49,18.30
2016,07,04,12,50,18.30
2016,07,04,12,51,18.40
2016,07,04,12,52,18.40
2016,07,04,12,53,18.40
2016,07,04,12,54,18.40
2016,07,04,12,55,18.40
2016,07,04,12,56,18.40
2016,07,04,12,57,18.40
2016,07,04,12,58,18.40
2016,07,04,12,59,18.40
2016,07,04,13,00,18.30
2016,07,04,13,01,18.30
2016,07,04,13,02,18.30
2016,07,04,13,03,18.30
2016,07,04,13,04,18.30
2016,07,04,13,05,18.30
2016,07,04,13,06,18.30
2016,07,04,13,07,18.30
2016,07,04,13,08,18.30
2016,07,04,13,09,18.30
2016,07,04,13,10,18.30
2016,07,04,13,11,18.30
2016,07,04,13,12,18.30
2016,07,04,13,13,18.30
2016,07,04,13,14,18.30
2016,07,04,13,15,18.30
2016,07,04,13,16,18.30
2016,07,04,13,17,18.30
2016,07,04,13,18,18.30
2016,07,04,13,19,18.40
2016,07,04,13,20,18.40
2016,07,04,13,21,18.40
2016,07,04,13,22,18.50
2016,07,04,13,23,18.60
2016,07,04,13,24,18.60
2016,07,04,13,25,18.70
2016,07,04,13,26,18.70
2016,07,04,13,27,18.70
2016,07,04,13,28,18.80
2016,07,04,13,29,18.80
2016,07,04,13,30,18.90
2016,07,04,13,31,18.90
2016,07,04,13,32,18.90
2016,07,04,13,33,18.90
2016,07,04,13,34,18.90
2016,07,04,13,35,18.90
2016,07,04,13,36,18.90
2016,07,04,13,37,18.90
2016,07,04,13,38,18.90
2016,07,04,13,39,18.90
2016,07,04,13,40,18.90
2016,07,04,13,41,18.90
2016,07,04,13,42,18.90
2016,07,04,13,43,18.90
2016,07,04,13,44,18.90
2016,07,04,13,45,18.90
2016,07,04,13,46,18.90
2016,07,04,13,47,18.90
2016,07,04,13,48,18.90
2016,07,04,13,49,18.90
2016,07,04,13,50,18.90
2016,07,04,13,51,18.90
2016,07,04,13,52,18.90
2016,07,04,13,53,18.80
2016,07,04,13,54,18.80
2016,07,04,13,55,18.80
2016,07,04,13,56,18.80
2016,07,04,13,57,18.80
2016,07,04,13,58,18.80
2016,07,04,13,59,18.80
2016,07,04,14,00,18.80
2016,07,04,14,01,18.90
2016,07,04,14,02,18.90
2016,07,04,14,03,18.90
2016,07,04,14,04,18.90
2016,07,04,14,05,18.90
2016,07,04,14,06,18.90
2016,07,04,14,07,18.90
2016,07,04,14,08,18.90
2016,07,04,14,09,18.90
2016,07,04,14,10,18.90
2016,07,04,14,11,19.00
2016,07,04,14,12,19.00
2016,07,04,14,13,19.10
2016,07,04,14,14,19.10
2016,07,04,14,15,19.10
2016,07,04,14,16,19.10
2016,07,04,14,17,19.10
2016,07,04,14,18,19.10
2016,07,04,14,19,19.10
2016,07,04,14,20,19.10
2016,07,04,14,21,19.00
2016,07,04,14,22,19.00
2016,07,04,14,23,19.00
2016,07,04,14,24,18.90
2016,07,04,14,25,18.90
2016,07,04,14,26,18.90
2016,07,04,14,27,18.80
2016,07,04,14,28,18.80
2016,07,04,14,29,18.80
2016,07,04,14,30,18.80
2016,07,04,14,31,18.80
2016,07,04,14,32,18.80
2016,07,04,14,33,18.80
2016,07,04,14,34,18.80
2016,07,04,14,35,18.80
2016,07,04,14,36,18.80
2016,07,04,14,37,18.90
2016,07,04,14,38,18.90
2016,07,04,14,39,18.90
2016,07,04,14,40,18.90
2016,07,04,14,41,18.90
2016,07,04,14,42,18.90
2016,07,04,14,43,19.00
2016,07,04,14,44,19.00
2016,07,04,14,45,19.10
2016,07,04,14,46,19.10
2016,07,04,14,47,19.10
2016,07,04,14,48,19.10
2016,07,04,14,49,19.10
2016,07,04,14,50,19.10
2016,07,04,14,51,19.10
2016,07,04,14,52,19.10
2016,07,04,14,53,19.10
2016,07,04,14,54,19.10
2016,07,04,14,55,19.20
2016,07,04,14,56,19.20
2016,07,04,14,57,19.20
2016,07,04,14,58,19.20
2016,07,04,14,59,19.20
2016,07,04,15,00,19.20
2016,07,04,15,01,19.30
2016,07,04,15,02,19.30
2016,07,04,15,03,19.30
2016,07,04,15,04,19.30
2016,07,04,15,05,19.20
2016,07,04,15,06,19.20
2016,07,04,15,07,19.20
2016,07,04,15,08,19.30
2016,07,04,15,09,19.30
2016,07,04,15,10,19.30
2016,07,04,15,11,19.30
2016,07,04,15,12,19.30
2016,07,04,15,13,19.30
2016,07,04,15,14,19.40
2016,07,04,15,15,19.50
2016,07,04,15,16,19.50
2016,07,04,15,17,19.60
2016,07,04,15,18,19.60
2016,07,04,15,19,19.60
2016,07,04,15,20,19.60
2016,07,04,15,21,19.60
2016,07,04,15,22,19.70
2016,07,04,15,23,19.70
2016,07,04,15,24,19.70
2016,07,04,15,25,19.60
2016,07,04,15,26,19.60
2016,07,04,15,27,19.60
2016,07,04,15,28,19.60
2016,07,04,15,29,19.60
2016,07,04,15,30,19.70
2016,07,04,15,31,19.70
2016,07,04,15,32,19.70
2016,07,04,15,33,19.70
2016,07,04,15,34,19.70
2016,07,04,15,35,19.70
2016,07,04,15,36,19.70
2016,07,04,15,37,19.70
2016,07,04,15,38,19.60
2016,07,04,15,39,19.60
2016,07,04,15,40,19.60
2016,07,04,15,41,19.60
2016,07,04,15,42,19.60
2016,07,04,15,43,19.60
2016,07,04,15,44,19.50
2016,07,04,15,45,19.50
2016,07,04,15,46,19.50
2016,07,04,15,47,19.40
2016,07,04,15,48,19.40
2016,07,04,15,49,19.30
2016,07,04,15,50,19.30
2016,07,04,15,51,19.30
2016,07,04,15,52,19.30
2016,07,04,15,53,19.30
2016,07,04,15,54,19.30
2016,07,04,15,55,19.30
2016,07,04,15,56,19.30
2016,07,04,15,57,19.30
2016,07,04,15,58,19.40
2016,07,04,15,59,19.50
2016,07,04,16,00,19.50
2016,07,04,16,01,19.60
2016,07,04,16,02,19.70
2016,07,04,16,03,19.70
2016,07,04,16,04,19.70
2016,07,04,16,05,19.60
2016,07,04,16,06,19.60
2016,07,04,16,07,19.60
2016,07,04,16,08,19.60
2016,07,04,16,09,19.60
2016,07,04,16,10,19.60
2016,07,04,16,11,19.70
2016,07,04,16,12,19.70
2016,07,04,16,13,19.70
2016,07,04,16,14,19.70
2016,07,04,16,15,19.70
2016,07,04,16,16,19.60
2016,07,04,16,17,19.60
2016,07,04,16,18,19.50
2016,07,04,16,19,19.50
2016,07,04,16,20,19.40
2016,07,04,16,21,19.40
2016,07,04,16,22,19.30
2016,07,04,16,23,19.30
2016,07,04,16,24,19.30
2016,07,04,16,25,19.30
2016,07,04,16,26,19.30
2016,07,04,16,27,19.30
2016,07,04,16,28,19.40
2016,07,04,16,29,19.50
2016,07,04,16,30,19.60
2016,07,04,16,31,19.60
2016,07,04,16,32,19.70
2016,07,04,16,33,19.70
2016,07,04,16,34,19.80
2016,07,04,16,35,19.80
2016,07,04,16,36,19.90
2016,07,04,16,37,19.90
2016,07,04,16,38,20.00
2016,07,04,16,39,20.00
2016,07,04,16,40,20.00
2016,07,04,16,41,20.00
2016,07,04,16,42,20.10
2016,07,04,16,43,20.10
2016,07,04,16,44,20.10
2016,07,04,16,45,20.10
2016,07,04,16,46,20.10
2016,07,04,16,47,20.10
2016,07,04,16,48,20.10
2016,07,04,16,49,20.10
2016,07,04,16,50,20.10
2016,07,04,16,51,20.00
2016,07,04,16,52,20.00
2016,07,04,16,53,20.00
2016,07,04,16,54,20.00
2016,07,04,16,55,20.00
2016,07,04,16,56,20.00
2016,07,04,16,57,20.10
2016,07,04,16,58,20.10
2016,07,04,16,59,20.10
2016,07,04,17,00,20.20
2016,07,04,17,01,20.20
2016,07,04,17,02,20.30
2016,07,04,17,03,20.30
2016,07,04,17,04,20.40
2016,07,04,17,05,20.50
2016,07,04,17,06,20.60
2016,07,04,17,07,20.70
2016,07,04,17,08,20.70
2016,07,04,17,09,20.80
2016,07,04,17,10,20.80
2016,07,04,17,11,20.80
2016,07,04,17,12,20.80
2016,07,04,17,13,20.80
2016,07,04,17,14,20.80
2016,07,04,17,15,20.80
2016,07,04,17,16,20.80
2016,07,04,17,17,20.80
2016,07,04,17,18,20.80
2016,07,04,17,19,20.80